Massena, NY

12:17 AM EDT on September 24, 2017 (GMT -0400)
Massena International-Richards

Weather History for KMSS - August, 2014

Change the Weather History Date:

Friday, August 22, 2014

  Actual Average Record
Temperature  
Mean Temperature 69 °F 66 °F  
Max Temperature 76 °F 77 °F 87 °F (1949)
Min Temperature 62 °F 55 °F 36 °F (1957)
Degree Days  
Heating Degree Days 0 2  
Month to date heating degree days 30 28  
Since 1 June heating degree days 90 147  
Since 1 July heating degree days 52 51  
Cooling Degree Days 4 3  
Month to date cooling degree days 49 80  
Year to date cooling degree days 255 314  
Since 1 June cooling degree days 240 300  
Growing Degree Days 18 (Base 50)    
Moisture  
Dew Point 63 °F    
Average Humidity 85    
Maximum Humidity 100    
Minimum Humidity 69    
Precipitation  
Precipitation T in 0.10 in 1.43 in (2013)
Month to date precipitation 3.35 2.55  
Year to date precipitation 23.68 21.57  
Sea Level Pressure  
Sea Level Pressure 30.04 in    
Wind  
Wind Speed 8 mph (NE)    
Max Wind Speed 18 mph    
Max Gust Speed 22 mph    
Visibility 10 miles    
Events      
T = Trace of Precipitation, MM = Missing Value Source: NWS Daily Summary

Daily Weather History Graph

Daily Weather History Graph

Search for Another Location

Airport or City:

Trip Planner

Search our weather history database for the weather conditions in past years. The results will help you decide how hot, cold, wet, or windy it might be!

Date:

Astronomy

Aug. 22, 2014 Rise Set
Actual Time 6:09 AM EDT 7:54 PM EDT
Civil Twilight 5:38 AM EDT 8:25 PM EDT
Nautical Twilight 5:00 AM EDT 9:03 PM EDT
Astronomical Twilight 4:19 AM EDT 9:43 PM EDT
Moon 3:26 AM EDT (8/22) 6:03 PM EDT (8/22)
Length of Visible Light 14h 46m
Length of Day
13h 44m
Waning Crescent, 8% of the Moon is Illuminated
Aug 22
Waning Crescent
Aug 25
New
Sep 2
First Quarter
Sep 8
Full
Sep 15
Last Quarter

Hourly Weather History & Observations

Time (EDT) Temp. Dew Point Humidity Pressure Visibility Wind Dir Wind Speed Gust Speed Precip Events Conditions
12:53 AM 64.0 °F 63.0 °F 96% 30.00 in 10.0 mi NE 8.1 mph - N/A   Mostly Cloudy
1:53 AM 62.1 °F 62.1 °F 100% 30.00 in 10.0 mi ENE 4.6 mph - N/A   Partly Cloudy
2:53 AM 63.0 °F 62.1 °F 97% 29.99 in 10.0 mi ENE 5.8 mph - N/A   Overcast
3:53 AM 62.1 °F 62.1 °F 100% 30.00 in 10.0 mi NE 4.6 mph - N/A   Scattered Clouds
4:53 AM 62.6 °F 62.6 °F 100% 30.00 in 10.0 mi NE 3.5 mph - N/A   Scattered Clouds
5:23 AM 63.0 °F 62.1 °F 97% 30.01 in 10.0 mi NE 3.5 mph - N/A   Mostly Cloudy
5:53 AM 63.0 °F 62.1 °F 97% 30.01 in 10.0 mi NE 5.8 mph - N/A   Overcast
6:53 AM 63.0 °F 63.0 °F 100% 30.02 in 10.0 mi ENE 5.8 mph - N/A   Overcast
7:02 AM 64.4 °F 62.6 °F 94% 30.02 in 10.0 mi ENE 5.8 mph - N/A   Overcast
7:13 AM 64.0 °F 63.0 °F 96% 30.02 in 10.0 mi ENE 6.9 mph - N/A   Overcast
7:40 AM 64.0 °F 63.0 °F 96% 30.03 in 10.0 mi NE 5.8 mph - N/A   Overcast
7:53 AM 64.0 °F 63.0 °F 96% 30.03 in 10.0 mi NE 6.9 mph - N/A   Overcast
8:13 AM 64.0 °F 63.0 °F 96% 30.03 in 10.0 mi ENE 8.1 mph - N/A   Overcast
8:27 AM 64.0 °F 63.0 °F 96% 30.03 in 10.0 mi NE 6.9 mph - N/A   Overcast
8:37 AM 64.0 °F 63.0 °F 96% 30.04 in 10.0 mi NE 8.1 mph - N/A   Overcast
8:53 AM 64.0 °F 63.0 °F 96% 30.04 in 10.0 mi NE 8.1 mph - N/A   Overcast
9:13 AM 64.0 °F 63.0 °F 96% 30.04 in 10.0 mi NE 6.9 mph - N/A   Overcast
9:53 AM 64.9 °F 63.0 °F 93% 30.05 in 10.0 mi NE 6.9 mph - N/A   Overcast
10:26 AM 66.0 °F 64.0 °F 93% 30.05 in 10.0 mi NE 6.9 mph - N/A   Overcast
10:45 AM 68.0 °F 64.0 °F 87% 30.05 in 10.0 mi NNE 8.1 mph - N/A   Overcast
10:53 AM 68.0 °F 64.4 °F 88% 30.05 in 10.0 mi ENE 8.1 mph - N/A   Overcast
11:53 AM 70.0 °F 64.9 °F 84% 30.05 in 10.0 mi ENE 8.1 mph - N/A   Overcast
12:27 PM 72.0 °F 64.9 °F 78% 30.04 in 10.0 mi NE 9.2 mph - N/A   Overcast
12:40 PM 72.0 °F 66.0 °F 81% 30.04 in 10.0 mi ENE 9.2 mph - N/A   Overcast
12:53 PM 72.0 °F 64.9 °F 78% 30.05 in 10.0 mi ENE 9.2 mph - N/A   Overcast
1:53 PM 72.0 °F 64.9 °F 78% 30.04 in 10.0 mi NE 12.7 mph - N/A   Overcast
2:17 PM 73.9 °F 64.9 °F 73% 30.04 in 10.0 mi NE 12.7 mph - N/A   Overcast
2:53 PM 73.9 °F 64.9 °F 73% 30.03 in 10.0 mi NE 15.0 mph - N/A   Mostly Cloudy
3:53 PM 75.9 °F 64.9 °F 69% 30.03 in 10.0 mi NE 12.7 mph - N/A   Clear
4:53 PM 73.4 °F 64.4 °F 73% 30.03 in 10.0 mi NE 17.3 mph - N/A   Clear
5:53 PM 72.0 °F 62.1 °F 71% 30.04 in 10.0 mi NE 17.3 mph 23.0 mph N/A   Clear
6:53 PM 70.0 °F 62.1 °F 76% 30.04 in 10.0 mi NE 10.4 mph - N/A   Mostly Cloudy
7:53 PM 66.9 °F 62.1 °F 84% 30.05 in 10.0 mi NE 9.2 mph - N/A   Overcast
8:30 PM 66.9 °F 62.1 °F 84% 30.06 in 10.0 mi ENE 5.8 mph - N/A   Overcast
8:53 PM 66.9 °F 62.1 °F 84% 30.06 in 10.0 mi ENE 6.9 mph - N/A   Overcast
9:02 PM 66.9 °F 62.1 °F 84% 30.06 in 10.0 mi ENE 6.9 mph - N/A   Overcast
9:53 PM 66.0 °F 63.0 °F 90% 30.07 in 10.0 mi ENE 4.6 mph - N/A   Overcast
10:53 PM 64.9 °F 62.1 °F 90% 30.08 in 10.0 mi NE 4.6 mph - N/A   Overcast
11:53 PM 64.9 °F 61.0 °F 87% 30.10 in 10.0 mi ENE 3.5 mph - N/A   Overcast